Time,TemperatureF,DewpointF,PressureIn,WindDirection,WindDirectionDegrees,WindSpeedMPH,WindSpeedGustMPH,Humidity,HourlyPrecipIn,Conditions,Clouds,dailyrainin,SoftwareType,DateUTC
2013-02-21 00:01:00,29.0,23.0,-100.00,West,272,3.0,5.0,77,-99.99,,,-99.99,,2013-02-21 08:01:00,
2013-02-21 00:11:00,29.0,23.0,-100.00,West,272,3.0,5.0,77,-99.99,,,-99.99,,2013-02-21 08:11:00,
2013-02-21 01:01:00,31.0,24.0,-100.00,WSW,240,7.0,9.0,74,-99.99,,,-99.99,,2013-02-21 09:01:00,
2013-02-21 01:11:00,31.0,24.0,-100.00,WSW,240,7.0,9.0,74,-99.99,,,-99.99,,2013-02-21 09:11:00,
2013-02-21 02:01:00,27.0,23.0,-100.00,WSW,246,5.0,6.0,84,-99.99,,,-99.99,,2013-02-21 10:01:00,
2013-02-21 02:11:00,27.0,23.0,-100.00,WSW,246,5.0,6.0,84,-99.99,,,-99.99,,2013-02-21 10:11:00,
2013-02-21 02:51:00,29.0,24.0,-100.00,WSW,241,5.0,6.0,81,-99.99,,,-99.99,,2013-02-21 10:51:00,
2013-02-21 03:01:00,29.0,24.0,-100.00,WSW,241,5.0,6.0,81,-99.99,,,-99.99,,2013-02-21 11:01:00,
2013-02-21 03:11:00,29.0,24.0,-100.00,WSW,241,5.0,6.0,81,-99.99,,,-99.99,,2013-02-21 11:11:00,
2013-02-21 04:01:00,27.0,24.0,-100.00,South,171,2.0,3.0,88,-99.99,,,-99.99,,2013-02-21 12:01:00,
2013-02-21 04:11:00,27.0,24.0,-100.00,South,171,2.0,3.0,88,-99.99,,,-99.99,,2013-02-21 12:11:00,
2013-02-21 05:01:00,25.0,23.0,-100.00,WNW,291,5.0,7.0,91,-99.99,,,-99.99,,2013-02-21 13:01:00,
2013-02-21 05:12:00,25.0,23.0,-100.00,WNW,291,5.0,7.0,91,-99.99,,,-99.99,,2013-02-21 13:12:00,
2013-02-21 06:02:00,23.0,22.0,-100.00,South,186,3.0,5.0,95,-99.99,,,-99.99,,2013-02-21 14:02:00,
2013-02-21 06:11:00,23.0,22.0,-100.00,South,186,3.0,5.0,95,-99.99,,,-99.99,,2013-02-21 14:11:00,
2013-02-21 07:01:00,22.0,22.0,-100.00,NW,314,2.0,3.0,100,-99.99,,,-99.99,,2013-02-21 15:01:00,
2013-02-21 07:12:00,22.0,22.0,-100.00,NW,314,2.0,3.0,100,-99.99,,,-99.99,,2013-02-21 15:12:00,
2013-02-21 08:01:00,25.0,25.0,-100.00,NNW,334,5.0,6.0,100,-99.99,,,-99.99,,2013-02-21 16:01:00,
2013-02-21 08:12:00,25.0,25.0,-100.00,NNW,334,5.0,6.0,100,-99.99,,,-99.99,,2013-02-21 16:12:00,
2013-02-21 11:01:00,35.0,28.0,-100.00,ESE,121,2.0,3.0,75,-99.99,,,-99.99,,2013-02-21 19:01:00,
2013-02-21 11:11:00,35.0,28.0,-100.00,ESE,121,2.0,3.0,75,-99.99,,,-99.99,,2013-02-21 19:11:00,
2013-02-21 11:52:00,37.0,29.0,-100.00,NE,54,3.0,5.0,72,-99.99,,,-99.99,,2013-02-21 19:52:00,
2013-02-21 12:01:00,37.0,29.0,-100.00,NE,54,3.0,5.0,72,-99.99,,,-99.99,,2013-02-21 20:01:00,
2013-02-21 12:11:00,37.0,29.0,-100.00,NE,54,3.0,5.0,72,-99.99,,,-99.99,,2013-02-21 20:11:00,
2013-02-21 13:02:00,42.0,29.0,-100.00,South,174,2.0,6.0,59,-99.99,,,-99.99,,2013-02-21 21:02:00,
2013-02-21 13:11:00,42.0,29.0,-100.00,South,174,2.0,6.0,59,-99.99,,,-99.99,,2013-02-21 21:11:00,
2013-02-21 14:01:00,46.0,29.0,-100.00,SE,142,5.0,14.0,51,-99.99,,,-99.99,,2013-02-21 22:01:00,
2013-02-21 14:11:00,46.0,29.0,-100.00,SE,142,5.0,14.0,51,-99.99,,,-99.99,,2013-02-21 22:11:00,
2013-02-21 15:01:00,51.0,27.0,-100.00,SW,232,18.0,27.0,39,-99.99,,,-99.99,,2013-02-21 23:01:00,
2013-02-21 15:11:00,51.0,27.0,-100.00,SW,232,18.0,27.0,39,-99.99,,,-99.99,,2013-02-21 23:11:00,
2013-02-21 15:52:00,52.0,27.0,-100.00,WSW,241,14.0,21.0,37,-99.99,,,-99.99,,2013-02-21 23:52:00,
2013-02-21 16:01:00,52.0,27.0,-100.00,WSW,241,14.0,21.0,37,-99.99,,,-99.99,,2013-02-22 00:01:00,
2013-02-21 16:11:00,52.0,27.0,-100.00,WSW,241,14.0,21.0,37,-99.99,,,-99.99,,2013-02-22 00:11:00,
2013-02-21 17:01:00,49.0,26.0,-100.00,SW,235,14.0,22.0,40,-99.99,,,-99.99,,2013-02-22 01:01:00,
2013-02-21 17:11:00,49.0,26.0,-100.00,SW,235,14.0,22.0,40,-99.99,,,-99.99,,2013-02-22 01:11:00,
2013-02-21 18:02:00,48.0,27.0,-100.00,SW,225,13.0,22.0,43,-99.99,,,-99.99,,2013-02-22 02:02:00,
2013-02-21 18:11:00,48.0,27.0,-100.00,SW,225,13.0,22.0,43,-99.99,,,-99.99,,2013-02-22 02:11:00,
2013-02-21 19:01:00,45.0,29.0,-100.00,SW,224,10.0,16.0,53,-99.99,,,-99.99,,2013-02-22 03:01:00,
2013-02-21 19:11:00,45.0,29.0,-100.00,SW,224,10.0,16.0,53,-99.99,,,-99.99,,2013-02-22 03:11:00,
2013-02-21 20:01:00,44.0,29.0,-100.00,SW,236,12.0,18.0,55,-99.99,,,-99.99,,2013-02-22 04:01:00,
2013-02-21 20:11:00,44.0,29.0,-100.00,SW,236,12.0,18.0,55,-99.99,,,-99.99,,2013-02-22 04:11:00,
2013-02-21 21:01:00,43.0,28.0,-100.00,WSW,257,14.0,23.0,55,-99.99,,,-99.99,,2013-02-22 05:01:00,
2013-02-21 21:11:00,43.0,28.0,-100.00,WSW,257,14.0,23.0,55,-99.99,,,-99.99,,2013-02-22 05:11:00,
2013-02-21 22:01:00,42.0,29.0,-100.00,WSW,244,12.0,16.0,59,-99.99,,,-99.99,,2013-02-22 06:01:00,
2013-02-21 22:11:00,42.0,29.0,-100.00,WSW,244,12.0,16.0,59,-99.99,,,-99.99,,2013-02-22 06:11:00,
2013-02-21 23:01:00,43.0,29.0,-100.00,WSW,242,12.0,20.0,57,-99.99,,,-99.99,,2013-02-22 07:01:00,
2013-02-21 23:11:00,43.0,29.0,-100.00,WSW,242,12.0,20.0,57,-99.99,,,-99.99,,2013-02-22 07:11:00,